Location: Carrières
(48.9495°N, 2.0407°E)
Time: 20:25:01
(UTC+00:00)

Courier 1B Rocket - Pass Details

Date: 21 April 2024
Orbit: 920 x 1201 km, 28.2° (Epoch: 25 May)

Event Time Altitude Azimuth Distance (km) Brightness Sun altitude
Rises 04:31:55 0° 223° (SW) 4,012 - -3.4°
Exits shadow 04:31:59 - 223° (SW) 3,999 7.6 -3.4°
Reaches altitude 10° 04:36:49 10° 196° (SSW) 2,993 7.2 -2.6°
Maximum altitude 04:39:36 12° 174° (S) 2,774 7.2 -2.2°
Drops below altitude 10° 04:42:20 10° 151° (SSE) 2,915 7.6 -1.8°
Sets 04:46:57 0° 123° (ESE) 3,799 8.7 -1.1°
